Location: Newark
(41.5333°N, 14.5500°E)
Time: 13:52:33
(UTC+00:00)

X-37B - Pass Details

Date: 10 March 2021
Orbit: 380 x 394 km, 45.0° (Epoch: 07 April)

Event Time Altitude Azimuth Distance (km) Brightness Sun altitude
Rises 18:37:25 0° 222° (SW) 2,261 4.9 -18.4°
Reaches altitude 10° 18:39:37 10° 211° (SSW) 1,413 3.6 -18.8°
Enters shadow 18:41:14 22° 189° (S) 894 2.3 -19.1°
